Location: Poughquag
(41.6090°N, 73.6820°W)
Time: 10:52:42
(UTC-05:00)

BlueWalker 3 - Visible Passes

Search period start: 02 December 2023 00:00
Search period end: 12 December 2023 00:00
Orbit: 489 x 504 km, 53.2° (Epoch: 01 December)

Date Brightness Start Highest point End Pass type
(mag) Time Alt. Az. Time Alt. Az. Time Alt. Az.
02 Dec 2.5 05:20:50 33° NNW 05:22:08 49° NNE 05:25:50 10° ESE visible
03 Dec 2.5 04:59:19 48° NNE 04:59:30 48° NNE 05:03:12 10° ESE visible
04 Dec 3.3 04:37:51 37° ENE 04:37:51 37° ENE 04:40:32 10° ESE visible
04 Dec 3.3 06:12:25 13° W 06:14:59 24° SW 06:18:06 10° S visible
05 Dec 4.4 04:16:26 21° E 04:16:26 21° E 04:17:51 10° ESE visible
05 Dec 3.3 05:51:00 20° W 05:52:19 24° SW 05:55:27 10° S visible
06 Dec 5.3 03:55:04 10° ESE 03:55:04 10° ESE 03:55:09 10° ESE visible
06 Dec 3.2 05:29:39 25° SW 05:29:39 25° SW 05:32:46 10° S visible
07 Dec 3.8 05:08:21 20° SSW 05:08:21 20° SSW 05:10:05 10° S visible
08 Dec 4.6 04:47:06 11° S 04:47:06 11° S 04:47:23 10° S visible
11 Dec 4.7 18:55:18 10° SSW 18:55:28 11° SSW 18:55:28 11° SSW visible
